EW4164 Weather Reports


time (UTC)temp
C
wind
direction
speed
KPH
gust
KPH
rain 1hr
cm
rain 24hr
cm
rain mn
cm
humidity
%
barometer
mb
20260506194503 -17 0.0 0.0 0.00 0.53 0.23 1008.9
20260506193047 -17 0.0 0.0 0.00 0.53 0.23 1008.9
20260506191559 -17 0.0 0.0 0.00 0.53 0.23 1008.4
20260506190216 11 175 6.4 11.3 0.00 0.33 0.25 93 1008.0
20260506190037 -17 0.0 0.0 0.03 0.53 0.23 1008.2
20260506185223 11 175 6.4 12.9 0.00 0.33 0.25 93 1007.9
20260506184627 11 189 6.4 19.3 0.03 0.53 0.23 93 1008.1
20260506184217 12 161 4.8 11.3 0.00 0.36 0.25 93 1007.9
20260506183217 12 180 4.8 11.3 0.00 0.41 0.25 93 1007.8
20260506183006 12 163 4.8 11.3 0.03 0.53 0.23 93 1007.9
20260506182224 12 211 4.8 11.3 0.00 0.43 0.23 92 1007.7
20260506181544 12 169 4.8 12.9 0.03 0.53 0.23 92 1007.8
20260506181212 12 233 3.2 11.3 0.00 0.43 0.23 92 1007.6
20260506180041 -17 0.0 0.0 0.00 0.51 0.23 1007.7
20260506174529 -17 0.0 0.0 0.05 0.51 0.23 1007.6
20260506173038 -17 0.0 0.0 0.23 0.51 0.23 1007.3
20260506172213 13 198 3.2 1.6 0.23 0.48 0.23 88 1007.1
20260506171528 -17 0.0 0.0 0.23 0.51 0.23 1007.1
20260506171213 13 198 3.2 1.6 0.23 0.48 0.23 88 1007.0
20260506170218 13 179 3.2 16.1 0.23 0.48 0.23 88 1006.9
20260506165212 13 155 4.8 16.1 0.20 0.46 0.23 88 1006.8
20260506164525 13 114 4.8 14.5 0.15 0.46 0.15 88 1007.0
20260506164212 13 194 4.8 17.7 0.08 0.33 0.10 87 1006.8
20260506163213 14 159 6.4 17.7 0.00 0.25 0.03 84 1006.6
20260506163107 14 208 4.8 19.3 0.00 0.30 0.00 84 1006.8
20260506162227 15 208 6.4 17.7 0.00 0.25 0.03 81 1006.5
20260506161506 15 190 6.4 17.7 0.00 0.30 0.00 79 1006.7
20260506161220 15 154 4.8 17.7 0.00 0.25 0.03 79 1006.5
20260506160251 15 160 4.8 0.0 0.00 0.25 0.03 77 1006.5
20260506160050 15 160 4.8 12.9 0.00 0.30 0.00 77 1006.6
20260506154547 15 247 4.8 17.7 0.00 0.30 0.00 74 1006.6
20260506061602 11 133 1.6 6.4 0.00 0.30 0.05 96 1006.6
20260506061230 11 163 1.6 6.4 0.00 0.30 0.03 96 1006.4
20260506060216 11 154 1.6 6.4 0.00 0.30 0.03 96 1006.4
20260506051220 10 240 1.6 3.2 0.00 0.30 0.03 95 1006.6
20260506050221 10 234 0.0 3.2 0.00 0.30 0.03 95 1006.6
20260506044601 9 234 0.0 3.2 0.00 0.30 0.05 95 1006.7
20260506044214 10 231 0.0 3.2 0.00 0.30 0.03 95 1006.5
20260506043225 10 213 0.0 1.6 0.00 0.30 0.03 95 1006.5
20260506043106 9 213 0.0 0.0 0.00 0.30 0.05 95 1006.7
20260506042243 10 213 0.0 1.6 0.00 0.30 0.03 95 1006.5
20260506041535 10 196 0.0 1.6 0.00 0.30 0.05 95 1006.6
20260506041233 10 182 1.6 3.2 0.00 0.30 0.03 95 1006.4
20260506040227 10 200 1.6 6.4 0.03 0.30 0.03 95 1006.5
20260506040022 10 128 0.0 3.2 0.03 0.30 0.05 95 1006.6
20260506035230 10 151 3.2 8.0 0.03 0.30 0.03 95 1006.5
20260506034600 10 262 1.6 11.3 0.03 0.30 0.05 95 1006.7
20260506034216 10 207 3.2 9.7 0.03 0.30 0.03 95 1006.6
20260506033231 10 177 3.2 8.0 0.03 0.30 0.03 95 1006.7
20260506033050 10 207 4.8 11.3 0.03 0.30 0.05 95 1006.8
20260506032223 10 223 1.6 6.4 0.03 0.30 0.03 95 1006.8
20260506031554 10 194 0.0 3.2 0.03 0.30 0.05 95 1007.0
20260506031210 10 223 1.6 4.8 0.03 0.30 0.03 95 1006.9
20260506030225 10 232 1.6 4.8 0.00 0.28 0.00 95 1007.1
20260506030030 10 238 1.6 3.2 0.00 0.28 0.03 95 1007.2
20260506025214 10 257 1.6 6.4 0.00 0.28 0.00 95 1007.2
20260506024540 10 155 1.6 6.4 0.00 0.28 0.03 95 1007.4
20260506024227 10 217 1.6 6.4 0.00 0.28 0.00 95 1007.3
20260506023222 10 175 1.6 4.8 0.00 0.28 0.00 95 1007.3
20260506023030 10 136 1.6 8.0 0.00 0.28 0.03 95 1007.5
20260506022222 10 149 1.6 4.8 0.00 0.28 0.00 95 1007.4
20260506021521 10 167 0.0 4.8 0.00 0.28 0.03 95 1007.5
20260506020210 10 171 3.2 8.0 0.00 0.28 0.00 95 1007.3
20260506020034 10 105 1.6 8.0 0.00 0.28 0.03 95 1007.3
20260506015207 10 158 1.6 3.2 0.00 0.28 0.00 94 1007.1
20260506014553 10 207 0.0 1.6 0.00 0.28 0.03 94 1007.2
20260506014225 10 198 0.0 1.6 0.00 0.28 0.00 94 1007.0
20260506013102 10 238 0.0 1.6 0.00 0.28 0.03 94 1007.2
20260506011557 10 208 0.0 3.2 0.00 0.28 0.03 94 1007.4
20260506011223 11 200 0.0 1.6 0.00 0.28 0.00 94 1007.4
20260506010226 11 211 1.6 3.2 0.00 0.28 0.00 94 1007.5
20260506010045 11 211 0.0 3.2 0.00 0.28 0.03 94 1007.6
20260506005220 11 202 1.6 3.2 0.00 0.28 0.00 94 1007.4
20260506004625 11 189 0.0 3.2 0.00 0.28 0.03 94 1007.6
20260506004222 11 242 1.6 4.8 0.00 0.28 0.00 94 1007.5
20260506003212 11 219 0.0 1.6 0.00 0.28 0.00 94 1007.6
20260506003016 11 204 0.0 3.2 0.00 0.28 0.03 94 1007.7
20260506002231 11 200 1.6 4.8 0.00 0.28 0.00 94 1007.6
20260506001528 11 248 0.0 4.8 0.00 0.28 0.03 94 1007.8
20260506001230 12 229 1.6 4.8 0.00 0.28 0.00 94 1007.8
20260506000044 11 175 0.0 4.8 0.00 0.28 0.03 94 1008.0
20260505234618 11 173 0.0 3.2 0.00 0.28 0.03 94 1008.0
20260505234225 12 194 1.6 4.8 0.00 0.28 0.00 94 1008.0
20260505233221 11 214 1.6 4.8 0.00 0.28 0.00 94 1008.1
20260505233009 11 213 1.6 4.8 0.00 0.28 0.03 94 1008.2
20260505232212 11 167 1.6 3.2 0.00 0.28 0.00 94 1008.1
20260505231510 11 205 0.0 3.2 0.00 0.28 0.03 94 1008.2
20260505231215 11 182 1.6 6.4 0.00 0.28 0.00 94 1008.1
20260505230216 12 180 1.6 6.4 0.00 0.28 0.00 94 1008.1
20260505230109 11 184 0.0 4.8 0.00 0.28 0.03 94 1008.2
20260505225218 12 103 1.6 3.2 0.03 0.28 0.00 94 1008.2
20260505224600 11 232 0.0 3.2 0.03 0.28 0.03 93 1008.3
20260505223219 12 224 1.6 4.8 0.03 0.28 0.00 94 1008.1
20260505223033 12 209 1.6 4.8 0.03 0.28 0.03 94 1008.2
20260505222228 12 193 1.6 4.8 0.03 0.28 0.00 93 1008.1
20260505221513 12 200 0.0 3.2 0.03 0.28 0.03 93 1008.2
20260505221218 12 198 1.6 6.4 0.03 0.28 0.00 93 1008.1
20260505220218 12 222 1.6 6.4 0.03 0.28 0.28 93 1008.0
20260505220138 12 196 0.0 4.8 0.03 0.28 0.03 93 1008.2
20260505215223 12 207 0.0 3.2 0.00 0.25 0.25 93 1008.0
20260505214619 12 244 0.0 1.6 0.00 0.25 0.25 93 1008.2
20260505214224 12 192 0.0 3.2 0.00 0.25 0.25 93 1008.1
20260505213210 12 213 1.6 3.2 0.00 0.25 0.25 93 1008.1
20260505213100 12 218 0.0 3.2 0.00 0.25 0.25 93 1008.2
20260505212219 12 230 0.0 3.2 0.00 0.25 0.25 93 1008.1
20260505211527 12 182 0.0 1.6 0.00 0.25 0.25 93 1008.2
20260505211218 12 232 0.0 3.2 0.00 0.25 0.25 93 1008.1
20260505210221 13 232 1.6 6.4 0.00 0.25 0.25 93 1008.1
20260505210057 12 232 0.0 4.8 0.00 0.25 0.25 93 1008.3
20260505205219 13 242 1.6 6.4 0.00 0.25 0.25 93 1008.1
20260505204503 13 222 0.0 4.8 0.00 0.25 0.25 93 1008.3
20260505204234 13 138 1.6 8.0 0.00 0.25 0.25 93 1008.2
20260505203217 13 243 3.2 8.0 0.00 0.25 0.25 93 1008.2
20260505203017 13 214 1.6 9.7 0.00 0.25 0.25 93 1008.3
20260505202224 13 189 3.2 6.4 0.00 0.25 0.25 92 1008.2
20260505201528 13 119 1.6 6.4 0.00 0.25 0.25 92 1008.2
20260505201209 13 174 1.6 3.2 0.03 0.25 0.25 92 1008.1
20260505200224 13 200 1.6 4.8 0.05 0.25 0.25 92 1008.0
20260505200107 13 165 1.6 4.8 0.05 0.25 0.25 92 1008.1
20260505195227 13 200 1.6 4.8 0.05 0.25 0.25 92 1007.9